Flight Track Log - Related Links

Times and Time Zones

All times are in EST time to prevent confusion due to time zone crossing. See the BWA457 flight status page for this flight to view local times or setup timezone preferences in your user account.

Time Position Orientation Groundspeed Altitude Reporting Facility
EST Latitude Longitude Course Direction KTS MPH feet Rate Location/Type
07:34PM 13.0740 -59.4950 180° South 140 161  Level FlightAware
07:34PM 13.0790 -59.4740 76° East 156 180 1,300 2,204 Climbing FlightAware
07:35PM 13.0830 -59.4590 75° East 173 199 1,800 1,571 Climbing FlightAware
07:35PM 13.0870 -59.4400 78° East 195 224 2,400 2,400 Climbing FlightAware
07:36PM 13.0680 -59.4180 132° Southeast 216 249 4,000 2,919 Climbing FlightAware
07:36PM 13.0640 -59.4180 180° South 224 258 4,200 2,143 Climbing FlightAware
07:36PM 13.0280 -59.4410 212° Southwest 275 316 5,500 2,129 Climbing FlightAware
07:37PM 13.0050 -59.4640 224° Southwest 294 338 6,400 2,500 Climbing FlightAware
07:37PM 12.9820 -59.4880 225° Southwest 300 345 7,500 2,625 Climbing FlightAware
07:38PM 12.9570 -59.5110 222° Southwest 307 353 8,500 2,651 Climbing FlightAware
07:38PM 12.9370 -59.5310 224° Southwest 311 358 9,400 1,923 Climbing FlightAware
07:39PM 12.8670 -59.5910 220° Southwest 362 417 11,000 2,037 Climbing FlightAware
07:40PM 12.7950 -59.6380 212° Southwest 376 433 13,100 2,714 Climbing FlightAware
07:40PM 12.7460 -59.6740 216° Southwest 378 435 14,800 2,955 Climbing FlightAware
07:41PM 12.7000 -59.7080 216° Southwest 381 438 16,400 2,764 Climbing FlightAware
07:42PM 12.6190 -59.7670 215° Southwest 384 442 18,900 2,330 Climbing FlightAware
07:43PM 12.5470 -59.8200 216° Southwest 405 466 20,400 1,683 Climbing FlightAware
07:43PM 12.4940 -59.8590 216° Southwest 421 484 21,200 1,814 Climbing FlightAware
07:44PM 12.4120 -59.9180 215° Southwest 429 494 23,000 2,234 Climbing FlightAware
07:45PM 12.3420 -59.9690 215° Southwest 426 490 24,700 2,370 Climbing FlightAware
07:45PM 12.2810 -60.0140 216° Southwest 419 482 26,200 2,157 Climbing FlightAware
07:46PM 12.2000 -60.0720 215° Southwest 419 482 27,900 1,009 Climbing FlightAware
07:47PM 12.1120 -60.1370 216° Southwest 421 484 28,000 64 Climbing FlightAware
07:48PM 12.0540 -60.1790 215° Southwest 419 482 28,000  Level FlightAware
07:49PM 11.9430 -60.2590 215° Southwest 419 482 28,000 -58 Level FlightAware
07:50PM 11.8860 -60.3000 215° Southwest 417 480 27,900 -682 Descending FlightAware
07:50PM 11.8050 -60.3590 215° Southwest 407 468 27,000 -1,020 Descending FlightAware
07:51PM 11.7330 -60.4110 215° Southwest 397 457 26,200 -1,000 Descending FlightAware
07:52PM 11.6960 -60.4380 216° Southwest 399 459 25,800 -1,521 Descending FlightAware
07:52PM 11.6260 -60.4880 215° Southwest 390 449 24,400 -1,857 Descending FlightAware
07:53PM 11.5710 -60.5290 216° Southwest 385 443 23,200 -1,918 Descending FlightAware
07:54PM 11.4860 -60.5920 216° Southwest 379 436 21,300 -1,860 Descending FlightAware
07:55PM 11.4370 -60.6430 226° Southwest 374 430 20,100 -1,773 Descending FlightAware
07:55PM 11.3810 -60.7020 226° Southwest 365 420 18,700 -1,788 Descending FlightAware
07:56PM 11.3160 -60.7720 227° Southwest 352 405 17,000 -1,748 Descending FlightAware
07:57PM 11.2640 -60.8260 226° Southwest 344 396 15,700 -1,625 Descending FlightAware
07:58PM 11.2090 -60.8830 225° Southwest 338 389 14,400 -1,714 Descending FlightAware
07:59PM 11.1480 -60.9470 226° Southwest 337 388 12,700 -1,731 Descending FlightAware
08:00PM 11.0970 -61.0020 227° Southwest 335 386 11,400 -1,560 Descending FlightAware
08:01PM 11.0410 -61.0630 227° Southwest 328 377 10,100 -1,250 Descending FlightAware
08:01PM 11.0210 -61.0840 226° Southwest 313 360 9,900 -955 Descending FlightAware
08:01PM 10.9990 -61.1090 228° Southwest 310 357 9,400 -1,385 Descending FlightAware
08:02PM 10.9710 -61.1400 227° Southwest 307 353 8,700 -1,448 Descending FlightAware
08:02PM 10.9420 -61.1720 227° Southwest 307 353 8,000 -1,448 Descending FlightAware
08:03PM 10.9160 -61.2020 229° Southwest 305 351 7,300 -1,500 Descending FlightAware
08:03PM 10.8930 -61.2280 228° Southwest 306 352 6,700 -1,385 Descending FlightAware
08:04PM 10.8680 -61.2580 230° Southwest 301 346 6,100 -1,400 Descending FlightAware
08:04PM 10.8380 -61.2930 229° Southwest 302 348 5,300 -1,393 Descending FlightAware
08:05PM 10.8150 -61.3180 227° Southwest 298 343 4,800 -1,125 Descending FlightAware
08:05PM 10.7920 -61.3410 224° Southwest 289 333 4,400 -1,050 Descending FlightAware
08:05PM 10.7750 -61.3560 221° Southwest 283 326 4,100 -571 Descending FlightAware
08:06PM 10.7500 -61.3760 218° Southwest 265 305 4,000  Descending FlightAware
08:06PM 10.7310 -61.3910 218° Southwest 248 285 4,100 88 Climbing FlightAware
08:07PM 10.6900 -61.4250 219° Southwest 222 255 4,100 -250 Level FlightAware
08:07PM 10.6720 -61.4410 221° Southwest 217 250 3,800 -1,071 Descending FlightAware
08:08PM 10.6490 -61.4640 225° Southwest 215 247 3,100 -1,263 Descending FlightAware
08:08PM 10.6300 -61.4780 216° Southwest 202 232 2,600 -1,313 Descending FlightAware
08:08PM 10.6230 -61.4790 188° South 193 222 2,400 -1,500 Descending FlightAware
08:09PM 10.5990 -61.4590 141° Southeast 173 199 1,400 -1,000 Descending FlightAware
08:09PM 10.5960 -61.4440 101° East 156 180 1,400  Level FlightAware
08:10PM 10.5950 -61.4300 94° East 149 171 1,400  Level FlightAware
08:10PM 10.5950 -61.4280 90° East 148 170 1,400 -533 Level FlightAware
08:10PM 10.5950 -61.4010 90° East 139 160 1,000 -696 Descending FlightAware
08:11PM 10.5950 -61.3830 90° East 142 163 600 -712 Descending FlightAware
08:11PM 10.5950 -61.3650 90° East 142 163 300 -545 Descending FlightAware
08:12PM 10.5950 -61.3440 90° East 149 171 -720 Descending FlightAware
08:12PM 10.5950 -61.3330 90° East 72 83  Level FlightAware

Login

Don't have an account? Register now (free) for customized features, flight alerts, and more!